Weather History for KLGA - December, 2014

Change the Weather History Date:

Friday, December 19, 2014

  Actual Average Record
Temperature  
Mean Temperature 35 °F 37 °F  
Max Temperature 38 °F 43 °F 57 °F (1957)
Min Temperature 32 °F 31 °F 14 °F (1980)
Degree Days  
Heating Degree Days 30 28  
Month to date heating degree days 466 475  
Since 1 July heating degree days 1220 1250  
Cooling Degree Days 0 0  
Month to date cooling degree days 0 0  
Year to date cooling degree days 1192 1214  
Moisture  
Dew Point 23 °F    
Average Humidity 61    
Maximum Humidity 70    
Minimum Humidity 52    
Precipitation  
Precipitation 0.00 in 0.11 in 1.31 in (1948)
Month to date precipitation 5.14 2.27  
Year to date precipitation 49.25 43.44  
Snow  
Snow 0.00 in 0.20 in 15.90 in (1948)
Month to date snowfall 1.3 2.5  
Since 1 July snowfall 1.7 2.8  
Snow Depth 0.00 in    
Sea Level Pressure  
Sea Level Pressure 30.06 in    
Wind  
Wind Speed 15 mph (NW)    
Max Wind Speed 22 mph    
Max Gust Speed 28 mph    
Visibility 10 miles    
Events      
T = Trace of Precipitation, MM = Missing Value Source: NWS Daily Summary

Daily Weather History Graph

Daily Weather History Graph

Search for Another Location

Airport or City:

Trip Planner

Search our weather history database for the weather conditions in past years. The results will help you decide how hot, cold, wet, or windy it might be!

Date:

Astronomy

Dec. 19, 2014 Rise Set
Actual Time 7:15 AM EST 4:30 PM EST
Civil Twilight 6:44 AM EST 5:01 PM EST
Nautical Twilight 6:09 AM EST 5:35 PM EST
Astronomical Twilight 5:36 AM EST 6:09 PM EST
Moon 4:26 AM EST (12/19) 2:51 PM EST (12/19)
Length of Visible Light 10h 17m
Length of Day
9h 15m
Waning Crescent, 7% of the Moon is Illuminated
Dec 19
Waning Crescent
Dec 21
New
Dec 28
First Quarter
Jan 4
Full
Jan 13
Last Quarter

Hourly Weather History & Observations

Time (EST) Temp. Windchill Dew Point Humidity Pressure Visibility Wind Dir Wind Speed Gust Speed Precip Events Conditions
12:51 AM 37.9 °F 29.6 °F 27.0 °F 65% 29.96 in 10.0 mi NW 13.8 mph - N/A   Overcast
1:51 AM 37.9 °F 30.0 °F 27.0 °F 65% 29.96 in 10.0 mi NW 12.7 mph - N/A   Overcast
2:51 AM 37.0 °F 27.7 °F 26.1 °F 65% 29.97 in 10.0 mi NW 16.1 mph 20.7 mph N/A   Scattered Clouds
3:51 AM 37.0 °F 28.9 °F 25.0 °F 62% 29.97 in 10.0 mi NW 12.7 mph - N/A   Scattered Clouds
4:51 AM 37.0 °F 28.1 °F 25.0 °F 62% 29.97 in 10.0 mi WNW 15.0 mph - N/A   Mostly Cloudy
5:51 AM 37.0 °F 28.1 °F 24.1 °F 59% 29.99 in 10.0 mi NW 15.0 mph 23.0 mph N/A   Overcast
6:51 AM 37.0 °F 28.5 °F 24.1 °F 59% 30.00 in 10.0 mi NW 13.8 mph - N/A   Overcast
7:51 AM 37.0 °F 27.7 °F 24.1 °F 59% 30.02 in 10.0 mi WNW 16.1 mph - N/A   Overcast
8:51 AM 35.1 °F 25.2 °F 23.0 °F 61% 30.05 in 10.0 mi NNW 16.1 mph - N/A   Overcast
9:51 AM 35.1 °F 25.2 °F 21.9 °F 59% 30.07 in 10.0 mi NW 16.1 mph - N/A   Overcast
10:51 AM 36.0 °F 26.0 °F 21.9 °F 57% 30.06 in 10.0 mi NW 17.3 mph 26.5 mph N/A   Mostly Cloudy
11:51 AM 35.1 °F 24.1 °F 21.0 °F 57% 30.04 in 10.0 mi NNW 19.6 mph 25.3 mph N/A   Mostly Cloudy
12:51 PM 36.0 °F 27.1 °F 21.0 °F 55% 30.03 in 10.0 mi NW 13.8 mph - N/A   Scattered Clouds
1:51 PM 37.0 °F 28.9 °F 21.0 °F 52% 30.04 in 10.0 mi NW 12.7 mph 24.2 mph N/A   Partly Cloudy
2:51 PM 37.0 °F 27.0 °F 21.0 °F 52% 30.05 in 10.0 mi WNW 18.4 mph 23.0 mph N/A   Partly Cloudy
3:51 PM 36.0 °F 26.7 °F 21.9 °F 57% 30.07 in 10.0 mi WNW 15.0 mph - N/A   Partly Cloudy
4:51 PM 35.1 °F 23.5 °F 21.9 °F 59% 30.09 in 10.0 mi NW 21.9 mph 27.6 mph N/A   Scattered Clouds
5:51 PM 34.0 °F 23.0 °F 21.9 °F 61% 30.12 in 10.0 mi NW 18.4 mph 26.5 mph N/A   Scattered Clouds
6:51 PM 33.1 °F 22.6 °F 21.0 °F 61% 30.15 in 10.0 mi WNW 16.1 mph 25.3 mph N/A   Mostly Cloudy
7:51 PM 33.1 °F 22.6 °F 21.0 °F 61% 30.16 in 10.0 mi NNW 16.1 mph - N/A   Mostly Cloudy
8:51 PM 33.1 °F 23.9 °F 21.9 °F 64% 30.14 in 10.0 mi NW 12.7 mph - N/A   Mostly Cloudy
9:51 PM 32.0 °F 24.2 °F 21.9 °F 66% 30.17 in 10.0 mi NNW 9.2 mph - N/A   Scattered Clouds
10:51 PM 32.0 °F 23.6 °F 21.9 °F 66% 30.18 in 10.0 mi NW 10.4 mph - N/A   Scattered Clouds
11:51 PM 33.1 °F 24.4 °F 21.9 °F 64% 30.20 in 10.0 mi NW 11.5 mph - N/A   Overcast